Location: Augsburg
(48.3836°N, 10.8929°E)
Time: 23:01:08
(UTC+01:00)

ISS - Pass Details

Date: 06 January 2018
Orbit: 402 x 407 km, 51.6° (Epoch: 18 January)

Event Time Altitude Azimuth Distance (km) Brightness Sun altitude
Exits shadow 06:46:20 23° 302° (WNW) 921 -2.6 -12.8°
Maximum altitude 06:48:04 47° 6° (N) 548 -3.3 -12.5°
Drops below altitude 10° 06:51:17 10° 82° (E) 1,470 0.0 -12.0°
Sets 06:53:25 0° 89° (E) 2,331 1.4 -11.7°
